Time,TemperatureF,DewpointF,PressureIn,WindDirection,WindDirectionDegrees,WindSpeedMPH,WindSpeedGustMPH,Humidity,HourlyPrecipIn,Conditions,Clouds,dailyrainin,SoftwareType,DateUTC
2013-05-30 00:01:00,50.8,-40.0,29.79,SE,135,1.0,2.0,0,0.00,,,0.00,Rainwise IP-100,2013-05-30 04:01:00,
2013-05-30 00:06:00,50.9,-40.0,29.79,SE,135,1.0,2.0,0,0.00,,,0.00,Rainwise IP-100,2013-05-30 04:06:00,
2013-05-30 00:11:00,50.9,-40.0,29.79,ESE,112,2.0,2.0,0,0.00,,,0.00,Rainwise IP-100,2013-05-30 04:11:00,
2013-05-30 00:16:00,50.9,-40.0,29.78,ESE,112,1.0,2.0,0,0.00,,,0.00,Rainwise IP-100,2013-05-30 04:16:00,
2013-05-30 00:17:00,51.1,-40.0,29.78,ESE,112,1.0,2.0,0,0.00,,,0.00,Rainwise IP-100,2013-05-30 04:17:00,
2013-05-30 00:22:00,51.1,-40.0,29.78,SSE,157,1.0,2.0,0,0.00,,,0.00,Rainwise IP-100,2013-05-30 04:22:00,
2013-05-30 00:27:00,51.2,-40.0,29.78,SSE,157,1.0,2.0,0,0.00,,,0.00,Rainwise IP-100,2013-05-30 04:27:00,
2013-05-30 00:32:00,51.2,-40.0,29.78,SE,135,1.0,2.0,0,0.00,,,0.00,Rainwise IP-100,2013-05-30 04:32:00,
2013-05-30 00:37:00,51.2,-40.0,29.78,SSE,157,1.0,2.0,0,0.00,,,0.00,Rainwise IP-100,2013-05-30 04:37:00,
2013-05-30 00:42:00,51.1,-40.0,29.78,SSE,157,1.0,3.0,0,0.00,,,0.00,Rainwise IP-100,2013-05-30 04:42:00,
2013-05-30 00:47:00,51.1,-40.0,29.78,WNW,292,2.0,2.0,0,0.00,,,0.00,Rainwise IP-100,2013-05-30 04:47:00,
2013-05-30 00:52:00,51.1,-40.0,29.78,WNW,292,0.0,2.0,0,0.00,,,0.00,Rainwise IP-100,2013-05-30 04:52:00,
2013-05-30 00:57:00,51.1,-40.0,29.78,WNW,292,0.0,0.0,0,0.00,,,0.00,Rainwise IP-100,2013-05-30 04:57:00,
2013-05-30 01:02:00,51.1,-40.0,29.78,WNW,292,0.0,0.0,0,0.00,,,0.00,Rainwise IP-100,2013-05-30 05:02:00,
2013-05-30 01:07:00,50.9,-40.0,29.78,WNW,292,0.0,0.0,0,0.00,,,0.00,Rainwise IP-100,2013-05-30 05:07:00,
2013-05-30 01:12:00,50.9,-40.0,29.78,WNW,292,0.0,0.0,0,0.00,,,0.00,Rainwise IP-100,2013-05-30 05:12:00,
2013-05-30 01:17:00,50.9,-40.0,29.77,ESE,112,1.0,2.0,0,0.00,,,0.00,Rainwise IP-100,2013-05-30 05:17:00,
2013-05-30 01:22:00,50.9,-40.0,29.78,SE,135,0.0,2.0,0,0.00,,,0.00,Rainwise IP-100,2013-05-30 05:22:00,
2013-05-30 01:27:00,51.0,-40.0,29.78,SE,135,1.0,2.0,0,0.00,,,0.00,Rainwise IP-100,2013-05-30 05:27:00,
2013-05-30 01:32:00,51.0,-40.0,29.77,SE,135,0.0,1.0,0,0.00,,,0.00,Rainwise IP-100,2013-05-30 05:32:00,
2013-05-30 01:37:00,51.1,-40.0,29.77,SE,135,0.0,0.0,0,0.00,,,0.00,Rainwise IP-100,2013-05-30 05:37:00,
2013-05-30 01:42:00,51.1,-40.0,29.77,SE,135,0.0,2.0,0,0.00,,,0.00,Rainwise IP-100,2013-05-30 05:42:00,
2013-05-30 01:47:00,51.1,-40.0,29.77,SE,135,0.0,0.0,0,0.00,,,0.00,Rainwise IP-100,2013-05-30 05:47:00,
2013-05-30 01:52:00,51.0,-40.0,29.77,SE,135,0.0,0.0,0,0.00,,,0.00,Rainwise IP-100,2013-05-30 05:52:00,
2013-05-30 01:57:00,51.0,-40.0,29.77,SE,135,0.0,0.0,0,0.00,,,0.00,Rainwise IP-100,2013-05-30 05:57:00,
2013-05-30 02:02:00,51.1,-40.0,29.77,SE,135,0.0,0.0,0,0.00,,,0.00,Rainwise IP-100,2013-05-30 06:02:00,
2013-05-30 02:07:00,51.0,-40.0,29.76,SE,135,0.0,0.0,0,0.00,,,0.00,Rainwise IP-100,2013-05-30 06:07:00,
2013-05-30 02:12:00,51.2,-40.0,29.77,SE,135,0.0,0.0,0,0.00,,,0.00,Rainwise IP-100,2013-05-30 06:12:00,
2013-05-30 02:17:00,50.8,-40.0,29.76,SW,225,1.0,2.0,0,0.00,,,0.00,Rainwise IP-100,2013-05-30 06:17:00,
2013-05-30 02:22:00,50.7,-40.0,29.76,SW,225,0.0,1.0,0,0.00,,,0.00,Rainwise IP-100,2013-05-30 06:22:00,
2013-05-30 02:27:00,50.8,-40.0,29.76,SW,225,0.0,0.0,0,0.00,,,0.00,Rainwise IP-100,2013-05-30 06:27:00,
2013-05-30 02:32:00,50.9,-40.0,29.76,SW,225,0.0,0.0,0,0.00,,,0.00,Rainwise IP-100,2013-05-30 06:32:00,
2013-05-30 02:37:00,51.1,-40.0,29.76,SW,225,0.0,0.0,0,0.00,,,0.00,Rainwise IP-100,2013-05-30 06:37:00,
2013-05-30 02:42:00,51.2,-40.0,29.76,SW,225,0.0,0.0,0,0.00,,,0.00,Rainwise IP-100,2013-05-30 06:42:00,
2013-05-30 02:47:00,51.3,-40.0,29.76,SSE,157,1.0,1.0,0,0.00,,,0.00,Rainwise IP-100,2013-05-30 06:47:00,
2013-05-30 02:52:00,51.3,-40.0,29.75,SSE,157,0.0,2.0,0,0.00,,,0.00,Rainwise IP-100,2013-05-30 06:52:00,
2013-05-30 02:57:00,51.3,-40.0,29.75,South,180,0.0,2.0,0,0.00,,,0.00,Rainwise IP-100,2013-05-30 06:57:00,
2013-05-30 03:02:00,51.3,-40.0,29.75,SW,225,1.0,2.0,0,0.00,,,0.00,Rainwise IP-100,2013-05-30 07:02:00,
2013-05-30 03:07:00,51.3,-40.0,29.76,SW,225,1.0,2.0,0,0.00,,,0.00,Rainwise IP-100,2013-05-30 07:07:00,
2013-05-30 03:12:00,51.3,-40.0,29.76,SW,225,2.0,2.0,0,0.00,,,0.00,Rainwise IP-100,2013-05-30 07:12:00,
2013-05-30 03:17:00,51.2,-40.0,29.76,SSW,202,2.0,2.0,0,0.00,,,0.00,Rainwise IP-100,2013-05-30 07:17:00,
2013-05-30 03:22:00,51.1,-40.0,29.76,WSW,247,2.0,2.0,0,0.00,,,0.00,Rainwise IP-100,2013-05-30 07:22:00,
2013-05-30 03:27:00,51.1,-40.0,29.76,WSW,247,0.0,2.0,0,0.00,,,0.00,Rainwise IP-100,2013-05-30 07:27:00,
2013-05-30 03:32:00,51.1,-40.0,29.76,WSW,247,0.0,0.0,0,0.00,,,0.00,Rainwise IP-100,2013-05-30 07:32:00,
2013-05-30 03:37:00,50.9,-40.0,29.76,WSW,247,0.0,0.0,0,0.00,,,0.00,Rainwise IP-100,2013-05-30 07:37:00,
2013-05-30 03:42:00,50.9,-40.0,29.76,WSW,247,0.0,0.0,0,0.00,,,0.00,Rainwise IP-100,2013-05-30 07:42:00,
2013-05-30 03:47:00,50.9,-40.0,29.76,WSW,247,0.0,0.0,0,0.00,,,0.00,Rainwise IP-100,2013-05-30 07:47:00,
2013-05-30 03:52:00,50.9,-40.0,29.76,WSW,247,0.0,2.0,0,0.00,,,0.00,Rainwise IP-100,2013-05-30 07:52:00,
2013-05-30 03:57:00,50.9,-40.0,29.76,WSW,247,0.0,0.0,0,0.00,,,0.00,Rainwise IP-100,2013-05-30 07:57:00,
2013-05-30 04:02:00,50.9,-40.0,29.76,WSW,247,0.0,0.0,0,0.00,,,0.00,Rainwise IP-100,2013-05-30 08:02:00,
2013-05-30 04:07:00,50.9,-40.0,29.76,WSW,247,0.0,0.0,0,0.00,,,0.00,Rainwise IP-100,2013-05-30 08:07:00,
2013-05-30 04:12:00,50.9,-40.0,29.76,WSW,247,0.0,0.0,0,0.00,,,0.00,Rainwise IP-100,2013-05-30 08:12:00,
2013-05-30 04:17:00,50.8,-40.0,29.76,SE,135,1.0,2.0,0,0.00,,,0.00,Rainwise IP-100,2013-05-30 08:17:00,
2013-05-30 04:22:00,50.9,-40.0,29.76,SSE,157,0.0,2.0,0,0.00,,,0.00,Rainwise IP-100,2013-05-30 08:22:00,
2013-05-30 04:27:00,50.9,-40.0,29.76,SSE,157,0.0,2.0,0,0.00,,,0.00,Rainwise IP-100,2013-05-30 08:27:00,
2013-05-30 04:32:00,50.9,-40.0,29.76,SSW,202,0.0,2.0,0,0.00,,,0.00,Rainwise IP-100,2013-05-30 08:32:00,
2013-05-30 04:37:00,50.9,-40.0,29.76,SSW,202,0.0,0.0,0,0.00,,,0.00,Rainwise IP-100,2013-05-30 08:37:00,
2013-05-30 04:42:00,50.9,-40.0,29.76,SSW,202,0.0,0.0,0,0.00,,,0.00,Rainwise IP-100,2013-05-30 08:42:00,
2013-05-30 04:47:00,51.1,-40.0,29.76,SSW,202,0.0,0.0,0,0.00,,,0.00,Rainwise IP-100,2013-05-30 08:47:00,
2013-05-30 04:52:00,51.1,-40.0,29.76,SSW,202,0.0,0.0,0,0.00,,,0.00,Rainwise IP-100,2013-05-30 08:52:00,
2013-05-30 04:57:00,51.2,-40.0,29.76,SSW,202,0.0,0.0,0,0.00,,,0.00,Rainwise IP-100,2013-05-30 08:57:00,
2013-05-30 05:02:00,51.3,-40.0,29.76,SSW,202,0.0,0.0,0,0.00,,,0.00,Rainwise IP-100,2013-05-30 09:02:00,
2013-05-30 05:07:00,51.4,-40.0,29.76,SSW,202,0.0,0.0,0,0.00,,,0.00,Rainwise IP-100,2013-05-30 09:07:00,
2013-05-30 05:12:00,51.4,-40.0,29.76,SSW,202,0.0,0.0,0,0.00,,,0.00,Rainwise IP-100,2013-05-30 09:12:00,
2013-05-30 05:17:00,51.6,-40.0,29.76,ESE,112,2.0,2.0,0,0.00,,,0.00,Rainwise IP-100,2013-05-30 09:17:00,
2013-05-30 05:22:00,51.7,-40.0,29.76,ESE,112,0.0,2.0,0,0.00,,,0.00,Rainwise IP-100,2013-05-30 09:22:00,
2013-05-30 05:27:00,51.8,-40.0,29.76,ESE,112,2.0,2.0,0,0.00,,,0.00,Rainwise IP-100,2013-05-30 09:27:00,
2013-05-30 05:32:00,51.8,-40.0,29.76,ESE,112,0.0,2.0,0,0.00,,,0.00,Rainwise IP-100,2013-05-30 09:32:00,
2013-05-30 05:37:00,52.1,-40.0,29.76,SSE,157,0.0,2.0,0,0.00,,,0.00,Rainwise IP-100,2013-05-30 09:37:00,
2013-05-30 05:42:00,52.3,-40.0,29.76,SW,225,0.0,2.0,0,0.00,,,0.00,Rainwise IP-100,2013-05-30 09:42:00,
2013-05-30 05:47:00,52.4,-40.0,29.76,SW,225,0.0,0.0,0,0.00,,,0.00,Rainwise IP-100,2013-05-30 09:47:00,
2013-05-30 05:52:00,52.5,-40.0,29.76,SE,135,1.0,2.0,0,0.00,,,0.00,Rainwise IP-100,2013-05-30 09:52:00,
2013-05-30 05:57:00,52.6,-40.0,29.76,SE,135,0.0,2.0,0,0.00,,,0.00,Rainwise IP-100,2013-05-30 09:57:00,
2013-05-30 06:02:00,52.7,-40.0,29.76,SE,135,0.0,2.0,0,0.00,,,0.00,Rainwise IP-100,2013-05-30 10:02:00,
2013-05-30 06:07:00,52.8,-40.0,29.76,SE,135,0.0,2.0,0,0.00,,,0.00,Rainwise IP-100,2013-05-30 10:07:00,
2013-05-30 06:12:00,52.9,-40.0,29.77,SE,135,1.0,2.0,0,0.00,,,0.00,Rainwise IP-100,2013-05-30 10:12:00,
2013-05-30 06:17:00,52.9,-40.0,29.77,SSW,202,1.0,2.0,0,0.00,,,0.00,Rainwise IP-100,2013-05-30 10:17:00,
2013-05-30 06:22:00,53.1,-40.0,29.77,SSW,202,2.0,2.0,0,0.00,,,0.00,Rainwise IP-100,2013-05-30 10:22:00,
2013-05-30 06:27:00,53.1,-40.0,29.77,SSW,202,0.0,2.0,0,0.00,,,0.00,Rainwise IP-100,2013-05-30 10:27:00,
2013-05-30 06:32:00,53.3,-40.0,29.77,SW,225,2.0,2.0,0,0.00,,,0.00,Rainwise IP-100,2013-05-30 10:32:00,
2013-05-30 06:37:00,53.4,-40.0,29.77,SSW,202,0.0,2.0,0,0.00,,,0.00,Rainwise IP-100,2013-05-30 10:37:00,
2013-05-30 06:42:00,53.7,-40.0,29.77,SSW,202,0.0,2.0,0,0.00,,,0.00,Rainwise IP-100,2013-05-30 10:42:00,
2013-05-30 06:47:00,53.8,-40.0,29.77,SSW,202,0.0,1.0,0,0.00,,,0.00,Rainwise IP-100,2013-05-30 10:47:00,
2013-05-30 06:52:00,53.9,-40.0,29.78,SW,225,1.0,2.0,0,0.00,,,0.00,Rainwise IP-100,2013-05-30 10:52:00,
2013-05-30 06:57:00,53.9,-40.0,29.78,SW,225,0.0,2.0,0,0.00,,,0.00,Rainwise IP-100,2013-05-30 10:57:00,
2013-05-30 07:02:00,53.6,-40.0,29.78,SW,225,0.0,2.0,0,0.00,,,0.00,Rainwise IP-100,2013-05-30 11:02:00,
2013-05-30 07:07:00,53.4,-40.0,29.78,SW,225,0.0,2.0,0,0.00,,,0.00,Rainwise IP-100,2013-05-30 11:07:00,
2013-05-30 07:12:00,53.2,-40.0,29.79,SW,225,0.0,2.0,0,0.00,,,0.00,Rainwise IP-100,2013-05-30 11:12:00,
2013-05-30 07:17:00,53.1,-40.0,29.79,SW,225,0.0,0.0,0,0.00,,,0.00,Rainwise IP-100,2013-05-30 11:17:00,
2013-05-30 07:22:00,53.4,-40.0,29.79,SW,225,0.0,2.0,0,0.00,,,0.00,Rainwise IP-100,2013-05-30 11:22:00,
2013-05-30 07:27:00,53.7,-40.0,29.79,SW,225,0.0,2.0,0,0.00,,,0.00,Rainwise IP-100,2013-05-30 11:27:00,
2013-05-30 07:32:00,53.9,-40.0,29.79,SW,225,0.0,2.0,0,0.00,,,0.00,Rainwise IP-100,2013-05-30 11:32:00,
2013-05-30 07:37:00,54.3,-40.0,29.79,SW,225,2.0,2.0,0,0.00,,,0.00,Rainwise IP-100,2013-05-30 11:37:00,
2013-05-30 07:42:00,54.4,-40.0,29.79,SW,225,1.0,2.0,0,0.00,,,0.00,Rainwise IP-100,2013-05-30 11:42:00,
2013-05-30 07:47:00,54.6,-40.0,29.79,WSW,247,1.0,2.0,0,0.00,,,0.00,Rainwise IP-100,2013-05-30 11:47:00,
2013-05-30 07:52:00,54.8,-40.0,29.80,WSW,247,0.0,2.0,0,0.00,,,0.00,Rainwise IP-100,2013-05-30 11:52:00,
2013-05-30 07:57:00,54.9,-40.0,29.79,WSW,247,0.0,2.0,0,0.00,,,0.00,Rainwise IP-100,2013-05-30 11:57:00,
2013-05-30 08:02:00,54.9,-40.0,29.80,WSW,247,1.0,2.0,0,0.00,,,0.00,Rainwise IP-100,2013-05-30 12:02:00,
2013-05-30 08:07:00,54.5,-40.0,29.80,West,270,1.0,2.0,0,0.00,,,0.00,Rainwise IP-100,2013-05-30 12:07:00,
2013-05-30 08:12:00,54.3,-40.0,29.80,West,270,2.0,2.0,0,0.00,,,0.00,Rainwise IP-100,2013-05-30 12:12:00,
2013-05-30 08:17:00,53.9,-40.0,29.81,West,270,1.0,2.0,0,0.00,,,0.00,Rainwise IP-100,2013-05-30 12:17:00,
2013-05-30 08:22:00,54.6,-40.0,29.81,WSW,247,1.0,2.0,0,0.00,,,0.00,Rainwise IP-100,2013-05-30 12:22:00,
2013-05-30 08:27:00,54.7,-40.0,29.81,WSW,247,2.0,3.0,0,0.00,,,0.00,Rainwise IP-100,2013-05-30 12:27:00,
2013-05-30 08:32:00,54.9,-40.0,29.82,West,270,1.0,2.0,0,0.00,,,0.00,Rainwise IP-100,2013-05-30 12:32:00,
2013-05-30 08:37:00,55.2,-40.0,29.82,WSW,247,1.0,3.0,0,0.00,,,0.00,Rainwise IP-100,2013-05-30 12:37:00,
2013-05-30 08:42:00,55.6,-40.0,29.82,WSW,247,1.0,2.0,0,0.00,,,0.00,Rainwise IP-100,2013-05-30 12:42:00,
2013-05-30 08:47:00,55.6,-40.0,29.82,SW,225,2.0,3.0,0,0.00,,,0.00,Rainwise IP-100,2013-05-30 12:47:00,
2013-05-30 08:52:00,55.8,-40.0,29.82,South,180,2.0,4.0,0,0.00,,,0.00,Rainwise IP-100,2013-05-30 12:52:00,
2013-05-30 08:57:00,55.9,-40.0,29.82,WNW,292,1.0,2.0,0,0.00,,,0.00,Rainwise IP-100,2013-05-30 12:57:00,
2013-05-30 09:02:00,56.2,-40.0,29.82,West,270,1.0,2.0,0,0.00,,,0.00,Rainwise IP-100,2013-05-30 13:02:00,
2013-05-30 09:07:00,56.6,-40.0,29.82,West,270,2.0,2.0,0,0.00,,,0.00,Rainwise IP-100,2013-05-30 13:07:00,
2013-05-30 09:12:00,56.9,-40.0,29.83,SW,225,2.0,2.0,0,0.00,,,0.00,Rainwise IP-100,2013-05-30 13:12:00,
2013-05-30 09:17:00,57.1,-40.0,29.83,West,270,1.0,2.0,0,0.00,,,0.00,Rainwise IP-100,2013-05-30 13:17:00,
2013-05-30 09:22:00,57.8,-40.0,29.83,West,270,0.0,2.0,0,0.00,,,0.00,Rainwise IP-100,2013-05-30 13:22:00,
2013-05-30 09:27:00,57.6,-40.0,29.83,WSW,247,1.0,2.0,0,0.00,,,0.00,Rainwise IP-100,2013-05-30 13:27:00,
2013-05-30 09:32:00,57.9,-40.0,29.83,WNW,292,0.0,2.0,0,0.00,,,0.00,Rainwise IP-100,2013-05-30 13:32:00,
2013-05-30 09:37:00,58.3,-40.0,29.83,WSW,247,1.0,2.0,0,0.00,,,0.00,Rainwise IP-100,2013-05-30 13:37:00,
2013-05-30 09:42:00,58.8,-23.0,29.84,WSW,247,1.0,2.0,0,0.00,,,0.00,Rainwise IP-100,2013-05-30 13:42:00,
2013-05-30 09:47:00,58.3,-40.0,29.84,WNW,292,1.0,2.0,0,0.00,,,0.00,Rainwise IP-100,2013-05-30 13:47:00,
2013-05-30 09:52:00,58.7,-23.0,29.84,NNW,337,0.0,2.0,0,0.00,,,0.00,Rainwise IP-100,2013-05-30 13:52:00,
2013-05-30 09:57:00,59.3,-23.0,29.84,NNW,337,1.0,2.0,0,0.00,,,0.00,Rainwise IP-100,2013-05-30 13:57:00,
2013-05-30 10:02:00,59.6,-23.0,29.84,NW,315,2.0,2.0,0,0.00,,,0.00,Rainwise IP-100,2013-05-30 14:02:00,
2013-05-30 10:07:00,60.0,-23.0,29.85,WSW,247,2.0,2.0,0,0.00,,,0.00,Rainwise IP-100,2013-05-30 14:07:00,
2013-05-30 10:12:00,60.3,-23.0,29.85,WNW,292,1.0,2.0,0,0.00,,,0.00,Rainwise IP-100,2013-05-30 14:12:00,
2013-05-30 10:17:00,60.2,-23.0,29.86,SW,225,4.0,4.0,0,0.00,,,0.00,Rainwise IP-100,2013-05-30 14:17:00,
2013-05-30 10:22:00,60.5,-23.0,29.86,SE,135,2.0,4.0,0,0.00,,,0.00,Rainwise IP-100,2013-05-30 14:22:00,
2013-05-30 10:27:00,61.6,-23.0,29.86,SSE,157,0.0,3.0,0,0.00,,,0.00,Rainwise IP-100,2013-05-30 14:27:00,
2013-05-30 10:32:00,61.9,-23.0,29.86,WSW,247,2.0,6.0,0,0.00,,,0.00,Rainwise IP-100,2013-05-30 14:32:00,
2013-05-30 10:37:00,62.5,-23.0,29.86,SW,225,1.0,3.0,0,0.00,,,0.00,Rainwise IP-100,2013-05-30 14:37:00,
2013-05-30 10:42:00,62.9,-23.0,29.86,South,180,1.0,4.0,0,0.00,,,0.00,Rainwise IP-100,2013-05-30 14:42:00,
2013-05-30 10:47:00,63.6,-23.0,29.86,SW,225,1.0,4.0,0,0.00,,,0.00,Rainwise IP-100,2013-05-30 14:47:00,
2013-05-30 10:52:00,63.5,-23.0,29.86,NNW,337,2.0,4.0,0,0.00,,,0.00,Rainwise IP-100,2013-05-30 14:52:00,
2013-05-30 10:57:00,63.3,-23.0,29.86,NW,315,1.0,3.0,0,0.00,,,0.00,Rainwise IP-100,2013-05-30 14:57:00,
2013-05-30 11:02:00,63.3,-23.0,29.86,NNW,337,2.0,2.0,0,0.00,,,0.00,Rainwise IP-100,2013-05-30 15:02:00,
2013-05-30 11:07:00,63.7,-23.0,29.86,NNW,337,1.0,2.0,0,0.00,,,0.00,Rainwise IP-100,2013-05-30 15:07:00,
2013-05-30 11:12:00,63.9,-23.0,29.86,West,270,2.0,3.0,0,0.00,,,0.00,Rainwise IP-100,2013-05-30 15:12:00,
2013-05-30 11:17:00,64.3,-23.0,29.87,West,270,1.0,3.0,0,0.00,,,0.00,Rainwise IP-100,2013-05-30 15:17:00,
2013-05-30 11:22:00,65.1,-23.0,29.86,West,270,2.0,2.0,0,0.00,,,0.00,Rainwise IP-100,2013-05-30 15:22:00,
2013-05-30 11:27:00,65.9,-23.0,29.87,WNW,292,1.0,2.0,0,0.00,,,0.00,Rainwise IP-100,2013-05-30 15:27:00,
2013-05-30 11:32:00,66.1,-23.0,29.87,WNW,292,2.0,2.0,0,0.00,,,0.00,Rainwise IP-100,2013-05-30 15:32:00,
2013-05-30 11:37:00,66.6,-23.0,29.87,WNW,292,1.0,3.0,0,0.00,,,0.00,Rainwise IP-100,2013-05-30 15:37:00,
2013-05-30 11:42:00,67.3,-23.0,29.87,WSW,247,1.0,2.0,0,0.00,,,0.00,Rainwise IP-100,2013-05-30 15:42:00,
2013-05-30 11:47:00,67.5,-23.0,29.87,West,270,2.0,3.0,1,0.00,,,0.00,Rainwise IP-100,2013-05-30 15:47:00,
2013-05-30 11:52:00,67.6,-23.0,29.87,WSW,247,3.0,3.0,1,0.00,,,0.00,Rainwise IP-100,2013-05-30 15:52:00,
2013-05-30 11:57:00,67.9,-6.0,29.87,West,270,1.0,3.0,5,0.00,,,0.00,Rainwise IP-100,2013-05-30 15:57:00,
2013-05-30 12:02:00,68.7,-23.0,29.86,West,270,2.0,2.0,2,0.00,,,0.00,Rainwise IP-100,2013-05-30 16:02:00,
2013-05-30 12:07:00,68.8,21.0,29.86,NW,315,2.0,3.0,16,0.00,,,0.00,Rainwise IP-100,2013-05-30 16:07:00,
2013-05-30 12:12:00,68.9,18.0,29.86,West,270,1.0,2.0,14,0.00,,,0.00,Rainwise IP-100,2013-05-30 16:12:00,
2013-05-30 12:17:00,69.9,21.0,29.86,West,270,1.0,3.0,15,0.00,,,0.00,Rainwise IP-100,2013-05-30 16:17:00,
2013-05-30 12:22:00,70.4,36.0,29.86,West,270,2.0,4.0,28,0.00,,,0.00,Rainwise IP-100,2013-05-30 16:22:00,
2013-05-30 12:27:00,71.3,37.0,29.86,West,270,2.0,3.0,29,0.00,,,0.00,Rainwise IP-100,2013-05-30 16:27:00,
2013-05-30 12:32:00,71.8,45.0,29.86,West,270,4.0,4.0,39,0.00,,,0.00,Rainwise IP-100,2013-05-30 16:32:00,
2013-05-30 12:37:00,71.7,44.0,29.87,WSW,247,2.0,4.0,37,0.00,,,0.00,Rainwise IP-100,2013-05-30 16:37:00,
2013-05-30 12:42:00,71.8,46.0,29.87,WSW,247,2.0,4.0,40,0.00,,,0.00,Rainwise IP-100,2013-05-30 16:42:00,
2013-05-30 12:47:00,72.2,53.0,29.87,WSW,247,3.0,5.0,50,0.00,,,0.00,Rainwise IP-100,2013-05-30 16:47:00,
2013-05-30 12:52:00,72.7,50.5,29.87,West,270,1.0,4.0,46,0.00,,,0.00,Rainwise IP-100,2013-05-30 16:52:00,
2013-05-30 12:57:00,72.3,51.0,29.87,West,270,2.0,3.0,48,0.00,,,0.00,Rainwise IP-100,2013-05-30 16:57:00,
2013-05-30 13:02:00,72.2,49.0,29.87,West,270,1.0,3.0,44,0.00,,,0.00,Rainwise IP-100,2013-05-30 17:02:00,
2013-05-30 13:07:00,72.1,51.0,29.87,West,270,2.0,3.0,48,0.00,,,0.00,Rainwise IP-100,2013-05-30 17:07:00,
2013-05-30 13:12:00,72.8,56.0,29.87,West,270,4.0,4.0,56,0.00,,,0.00,Rainwise IP-100,2013-05-30 17:12:00,
2013-05-30 13:17:00,73.3,60.0,29.87,West,270,2.0,4.0,63,0.00,,,0.00,Rainwise IP-100,2013-05-30 17:17:00,
2013-05-30 13:22:00,73.9,60.0,29.87,West,270,3.0,3.0,61,0.00,,,0.00,Rainwise IP-100,2013-05-30 17:22:00,
2013-05-30 13:27:00,73.8,61.5,29.88,West,270,2.0,5.0,66,0.00,,,0.00,Rainwise IP-100,2013-05-30 17:27:00,
2013-05-30 13:32:00,73.3,62.0,29.87,WSW,247,2.0,4.0,67,0.00,,,0.00,Rainwise IP-100,2013-05-30 17:32:00,
2013-05-30 13:37:00,73.9,60.5,29.87,West,270,1.0,6.0,62,0.00,,,0.00,Rainwise IP-100,2013-05-30 17:37:00,
2013-05-30 13:42:00,74.2,59.0,29.87,WNW,292,2.0,3.0,58,0.00,,,0.00,Rainwise IP-100,2013-05-30 17:42:00,
2013-05-30 13:47:00,74.8,66.3,29.87,West,270,2.0,4.0,75,0.00,,,0.00,Rainwise IP-100,2013-05-30 17:47:00,
2013-05-30 13:52:00,74.2,64.0,29.86,West,270,1.0,4.0,70,0.00,,,0.00,Rainwise IP-100,2013-05-30 17:52:00,
2013-05-30 13:57:00,74.9,65.5,29.87,SW,225,4.0,4.0,72,0.00,,,0.00,Rainwise IP-100,2013-05-30 17:57:00,
2013-05-30 14:02:00,75.1,66.7,29.86,West,270,3.0,4.0,75,0.00,,,0.00,Rainwise IP-100,2013-05-30 18:02:00,
2013-05-30 14:07:00,74.3,64.0,29.87,NW,315,1.0,4.0,70,0.00,,,0.00,Rainwise IP-100,2013-05-30 18:07:00,
2013-05-30 14:12:00,74.2,66.3,29.86,NNW,337,2.0,2.0,75,0.00,,,0.00,Rainwise IP-100,2013-05-30 18:12:00,
2013-05-30 14:17:00,74.1,66.0,29.86,West,270,1.0,4.0,75,0.00,,,0.00,Rainwise IP-100,2013-05-30 18:17:00,
2013-05-30 14:22:00,74.3,63.0,29.86,West,270,2.0,2.0,68,0.00,,,0.00,Rainwise IP-100,2013-05-30 18:22:00,
2013-05-30 14:27:00,74.3,63.5,29.86,West,270,1.0,2.0,69,0.00,,,0.00,Rainwise IP-100,2013-05-30 18:27:00,
2013-05-30 14:32:00,74.2,63.0,29.86,NW,315,2.0,2.0,67,0.00,,,0.00,Rainwise IP-100,2013-05-30 18:32:00,
2013-05-30 14:37:00,74.7,66.7,29.86,NNW,337,2.0,2.0,76,0.00,,,0.00,Rainwise IP-100,2013-05-30 18:37:00,
2013-05-30 14:42:00,74.2,66.7,29.86,SW,225,2.0,4.0,77,0.00,,,0.00,Rainwise IP-100,2013-05-30 18:42:00,
2013-05-30 14:47:00,74.4,65.0,29.86,WNW,292,0.0,2.0,72,0.00,,,0.00,Rainwise IP-100,2013-05-30 18:47:00,
2013-05-30 14:52:00,74.5,66.0,29.86,WNW,292,1.0,2.0,73,0.00,,,0.00,Rainwise IP-100,2013-05-30 18:52:00,
2013-05-30 14:57:00,75.6,68.0,29.86,West,270,1.0,2.0,78,0.00,,,0.00,Rainwise IP-100,2013-05-30 18:57:00,
2013-05-30 15:02:00,75.6,64.5,29.86,West,270,1.0,2.0,68,0.00,,,0.00,Rainwise IP-100,2013-05-30 19:02:00,
2013-05-30 15:07:00,75.5,67.5,29.87,West,270,2.0,2.0,76,0.00,,,0.00,Rainwise IP-100,2013-05-30 19:07:00,
2013-05-30 15:12:00,75.7,66.7,29.86,SW,225,0.0,2.0,74,0.00,,,0.00,Rainwise IP-100,2013-05-30 19:12:00,
2013-05-30 15:17:00,75.6,67.0,29.86,WSW,247,2.0,2.0,75,0.00,,,0.00,Rainwise IP-100,2013-05-30 19:17:00,
2013-05-30 15:22:00,76.8,69.7,29.86,SW,225,1.0,3.0,78,0.00,,,0.00,Rainwise IP-100,2013-05-30 19:22:00,
2013-05-30 15:27:00,76.5,69.3,29.86,NW,315,4.0,6.0,78,0.00,,,0.00,Rainwise IP-100,2013-05-30 19:27:00,
2013-05-30 15:32:00,76.3,69.0,29.86,SSW,202,1.0,5.0,78,0.00,,,0.00,Rainwise IP-100,2013-05-30 19:32:00,
2013-05-30 15:37:00,77.0,70.5,29.86,SSW,202,4.0,6.0,80,0.00,,,0.00,Rainwise IP-100,2013-05-30 19:37:00,
2013-05-30 15:42:00,77.8,71.0,29.86,SSW,202,2.0,6.0,79,0.00,,,0.00,Rainwise IP-100,2013-05-30 19:42:00,
2013-05-30 15:47:00,77.4,70.5,29.86,WSW,247,2.0,7.0,79,0.00,,,0.00,Rainwise IP-100,2013-05-30 19:47:00,
2013-05-30 15:52:00,77.7,70.5,29.86,SSW,202,2.0,6.0,78,0.00,,,0.00,Rainwise IP-100,2013-05-30 19:52:00,
2013-05-30 15:57:00,76.9,69.7,29.86,SSW,202,2.0,8.0,78,0.00,,,0.00,Rainwise IP-100,2013-05-30 19:57:00,
2013-05-30 16:02:00,76.0,69.0,29.86,South,180,1.0,7.0,79,0.00,,,0.00,Rainwise IP-100,2013-05-30 20:02:00,
2013-05-30 16:07:00,75.5,68.5,29.86,South,180,1.0,7.0,79,0.00,,,0.00,Rainwise IP-100,2013-05-30 20:07:00,
2013-05-30 16:12:00,75.1,68.5,29.86,SW,225,1.0,7.0,80,0.00,,,0.00,Rainwise IP-100,2013-05-30 20:12:00,
2013-05-30 16:17:00,74.9,68.5,29.86,South,180,2.0,6.0,80,0.00,,,0.00,Rainwise IP-100,2013-05-30 20:17:00,
2013-05-30 16:22:00,75.5,68.5,29.86,SSW,202,1.0,7.0,79,0.00,,,0.00,Rainwise IP-100,2013-05-30 20:22:00,
2013-05-30 16:27:00,74.7,68.5,29.86,West,270,2.0,7.0,80,0.00,,,0.00,Rainwise IP-100,2013-05-30 20:27:00,
2013-05-30 16:32:00,74.7,68.5,29.86,ESE,112,2.0,6.0,80,0.00,,,0.00,Rainwise IP-100,2013-05-30 20:32:00,
2013-05-30 16:37:00,74.2,68.0,29.86,SSE,157,4.0,9.0,80,0.00,,,0.00,Rainwise IP-100,2013-05-30 20:37:00,
2013-05-30 16:42:00,72.9,66.7,29.85,SSE,157,7.0,7.0,80,0.00,,,0.00,Rainwise IP-100,2013-05-30 20:42:00,
2013-05-30 16:47:00,72.7,66.0,29.85,SSW,202,4.0,11.0,79,0.00,,,0.00,Rainwise IP-100,2013-05-30 20:47:00,
2013-05-30 16:52:00,72.5,66.0,29.85,ENE,67,1.0,6.0,79,0.00,,,0.00,Rainwise IP-100,2013-05-30 20:52:00,
2013-05-30 16:57:00,71.4,63.5,29.85,ESE,112,2.0,8.0,77,0.00,,,0.00,Rainwise IP-100,2013-05-30 20:57:00,
2013-05-30 17:02:00,71.3,63.5,29.85,ESE,112,5.0,6.0,76,0.00,,,0.00,Rainwise IP-100,2013-05-30 21:02:00,
2013-05-30 17:07:00,71.5,63.5,29.85,SSE,157,3.0,6.0,76,0.00,,,0.00,Rainwise IP-100,2013-05-30 21:07:00,
2013-05-30 17:12:00,71.4,63.5,29.85,SSE,157,2.0,6.0,77,0.00,,,0.00,Rainwise IP-100,2013-05-30 21:12:00,
2013-05-30 17:17:00,71.6,63.5,29.85,South,180,3.0,6.0,76,0.00,,,0.00,Rainwise IP-100,2013-05-30 21:17:00,
2013-05-30 17:22:00,72.5,66.3,29.84,South,180,5.0,6.0,80,0.00,,,0.00,Rainwise IP-100,2013-05-30 21:22:00,
2013-05-30 17:27:00,72.2,65.5,29.84,South,180,3.0,7.0,79,0.00,,,0.00,Rainwise IP-100,2013-05-30 21:27:00,
2013-05-30 17:32:00,71.5,65.0,29.84,SSE,157,3.0,8.0,79,0.00,,,0.00,Rainwise IP-100,2013-05-30 21:32:00,
2013-05-30 17:37:00,71.8,65.0,29.84,SE,135,3.0,6.0,79,0.00,,,0.00,Rainwise IP-100,2013-05-30 21:37:00,
2013-05-30 17:42:00,72.3,65.5,29.84,SSW,202,2.0,9.0,79,0.00,,,0.00,Rainwise IP-100,2013-05-30 21:42:00,
2013-05-30 17:47:00,72.1,65.5,29.84,SSE,157,2.0,7.0,80,0.00,,,0.00,Rainwise IP-100,2013-05-30 21:47:00,
2013-05-30 17:52:00,72.9,66.7,29.84,SSW,202,1.0,5.0,80,0.00,,,0.00,Rainwise IP-100,2013-05-30 21:52:00,
2013-05-30 17:57:00,73.6,67.0,29.84,SE,135,1.0,4.0,80,0.00,,,0.00,Rainwise IP-100,2013-05-30 21:57:00,
2013-05-30 18:02:00,73.2,66.7,29.84,SSE,157,2.0,4.0,80,0.00,,,0.00,Rainwise IP-100,2013-05-30 22:02:00,
2013-05-30 18:07:00,73.3,66.7,29.84,SSE,157,2.0,5.0,80,0.00,,,0.00,Rainwise IP-100,2013-05-30 22:07:00,
2013-05-30 18:12:00,73.1,66.3,29.84,SSE,157,2.0,6.0,79,0.00,,,0.00,Rainwise IP-100,2013-05-30 22:12:00,
2013-05-30 18:17:00,72.6,66.0,29.84,ESE,112,2.0,5.0,79,0.00,,,0.00,Rainwise IP-100,2013-05-30 22:17:00,
2013-05-30 18:22:00,72.0,65.5,29.84,SSE,157,1.0,6.0,80,0.00,,,0.00,Rainwise IP-100,2013-05-30 22:22:00,
2013-05-30 18:27:00,72.3,66.0,29.84,SSW,202,2.0,5.0,80,0.00,,,0.00,Rainwise IP-100,2013-05-30 22:27:00,
2013-05-30 18:32:00,72.4,66.0,29.84,SE,135,2.0,5.0,80,0.00,,,0.00,Rainwise IP-100,2013-05-30 22:32:00,
2013-05-30 18:37:00,72.4,65.5,29.84,SE,135,2.0,4.0,79,0.00,,,0.00,Rainwise IP-100,2013-05-30 22:37:00,
2013-05-30 18:42:00,72.5,66.3,29.84,East,90,1.0,4.0,80,0.00,,,0.00,Rainwise IP-100,2013-05-30 22:42:00,
2013-05-30 18:47:00,72.7,66.3,29.85,South,180,3.0,3.0,80,0.00,,,0.00,Rainwise IP-100,2013-05-30 22:47:00,
2013-05-30 18:52:00,72.6,66.0,29.85,ESE,112,2.0,3.0,79,0.00,,,0.00,Rainwise IP-100,2013-05-30 22:52:00,
2013-05-30 18:57:00,72.6,66.0,29.85,SE,135,2.0,2.0,79,0.00,,,0.00,Rainwise IP-100,2013-05-30 22:57:00,
2013-05-30 19:02:00,72.3,64.5,29.85,ESE,112,1.0,2.0,76,0.00,,,0.00,Rainwise IP-100,2013-05-30 23:02:00,
2013-05-30 19:07:00,71.9,65.0,29.85,SSW,202,2.0,4.0,78,0.00,,,0.00,Rainwise IP-100,2013-05-30 23:07:00,
2013-05-30 19:12:00,71.6,65.0,29.85,ESE,112,1.0,4.0,80,0.00,,,0.00,Rainwise IP-100,2013-05-30 23:12:00,
2013-05-30 19:17:00,71.6,65.0,29.85,SSE,157,1.0,4.0,80,0.00,,,0.00,Rainwise IP-100,2013-05-30 23:17:00,
2013-05-30 19:22:00,71.3,65.0,29.85,South,180,3.0,4.0,80,0.00,,,0.00,Rainwise IP-100,2013-05-30 23:22:00,
2013-05-30 19:27:00,71.1,64.0,29.85,South,180,2.0,2.0,79,0.00,,,0.00,Rainwise IP-100,2013-05-30 23:27:00,
2013-05-30 19:32:00,70.4,63.0,29.85,SSE,157,1.0,4.0,77,0.00,,,0.00,Rainwise IP-100,2013-05-30 23:32:00,
2013-05-30 19:37:00,69.9,62.0,29.84,South,180,1.0,2.0,75,0.00,,,0.00,Rainwise IP-100,2013-05-30 23:37:00,
2013-05-30 19:42:00,69.3,59.0,29.84,ESE,112,1.0,2.0,69,0.00,,,0.00,Rainwise IP-100,2013-05-30 23:42:00,
2013-05-30 19:47:00,68.8,57.5,29.84,South,180,2.0,3.0,68,0.00,,,0.00,Rainwise IP-100,2013-05-30 23:47:00,
2013-05-30 19:52:00,68.2,57.0,29.84,SSW,202,2.0,4.0,68,0.00,,,0.00,Rainwise IP-100,2013-05-30 23:52:00,
2013-05-30 19:57:00,67.6,53.5,29.84,ESE,112,6.0,6.0,60,0.00,,,0.00,Rainwise IP-100,2013-05-30 23:57:00,
2013-05-30 20:02:00,67.0,53.0,29.84,SE,135,2.0,6.0,60,0.00,,,0.00,Rainwise IP-100,2013-05-31 00:02:00,
2013-05-30 20:07:00,66.6,51.0,29.84,SE,135,1.0,5.0,58,0.00,,,0.00,Rainwise IP-100,2013-05-31 00:07:00,
2013-05-30 20:12:00,66.3,48.0,29.84,ESE,112,2.0,4.0,52,0.00,,,0.00,Rainwise IP-100,2013-05-31 00:12:00,
2013-05-30 20:17:00,65.9,45.0,29.84,SE,135,1.0,4.0,47,0.00,,,0.00,Rainwise IP-100,2013-05-31 00:17:00,
2013-05-30 20:22:00,65.9,47.0,29.84,SE,135,5.0,5.0,50,0.00,,,0.00,Rainwise IP-100,2013-05-31 00:22:00,
2013-05-30 20:27:00,66.0,48.0,29.84,ESE,112,1.0,5.0,53,0.00,,,0.00,Rainwise IP-100,2013-05-31 00:27:00,
2013-05-30 20:32:00,65.5,40.0,29.84,ESE,112,2.0,4.0,39,0.00,,,0.00,Rainwise IP-100,2013-05-31 00:32:00,
2013-05-30 20:37:00,64.8,21.0,29.84,ESE,112,1.0,2.0,18,0.00,,,0.00,Rainwise IP-100,2013-05-31 00:37:00,
2013-05-30 20:42:00,64.5,28.0,29.84,ESE,112,1.0,2.0,25,0.00,,,0.00,Rainwise IP-100,2013-05-31 00:42:00,
2013-05-30 20:47:00,64.4,23.0,29.84,East,90,1.0,2.0,19,0.00,,,0.00,Rainwise IP-100,2013-05-31 00:47:00,
2013-05-30 20:52:00,64.4,26.0,29.84,ESE,112,2.0,2.0,23,0.00,,,0.00,Rainwise IP-100,2013-05-31 00:52:00,
2013-05-30 20:57:00,64.2,18.0,29.84,ESE,112,2.0,4.0,17,0.00,,,0.00,Rainwise IP-100,2013-05-31 00:57:00,
2013-05-30 21:02:00,64.4,24.0,29.84,ESE,112,1.0,3.0,22,0.00,,,0.00,Rainwise IP-100,2013-05-31 01:02:00,
2013-05-30 21:07:00,64.0,11.0,29.84,ESE,112,2.0,2.0,12,0.00,,,0.00,Rainwise IP-100,2013-05-31 01:07:00,
2013-05-30 21:12:00,64.1,14.0,29.84,ESE,112,2.0,3.0,14,0.00,,,0.00,Rainwise IP-100,2013-05-31 01:12:00,
2013-05-30 21:17:00,63.9,11.0,29.84,East,90,2.0,2.0,12,0.00,,,0.00,Rainwise IP-100,2013-05-31 01:17:00,
2013-05-30 21:22:00,63.8,11.0,29.84,ESE,112,2.0,2.0,11,0.00,,,0.00,Rainwise IP-100,2013-05-31 01:22:00,
2013-05-30 21:27:00,63.6,-6.0,29.84,East,90,2.0,2.0,5,0.00,,,0.00,Rainwise IP-100,2013-05-31 01:27:00,
2013-05-30 21:32:00,63.6,4.0,29.84,ESE,112,1.0,2.0,8,0.00,,,0.00,Rainwise IP-100,2013-05-31 01:32:00,
2013-05-30 21:37:00,63.6,4.0,29.83,East,90,2.0,2.0,8,0.00,,,0.00,Rainwise IP-100,2013-05-31 01:37:00,
2013-05-30 21:42:00,63.3,-23.0,29.83,ENE,67,2.0,3.0,2,0.00,,,0.00,Rainwise IP-100,2013-05-31 01:42:00,
2013-05-30 21:47:00,63.0,-23.0,29.83,ESE,112,2.0,2.0,0,0.00,,,0.00,Rainwise IP-100,2013-05-31 01:47:00,
2013-05-30 21:52:00,62.6,-23.0,29.83,ESE,112,1.0,2.0,0,0.00,,,0.00,Rainwise IP-100,2013-05-31 01:52:00,
2013-05-30 21:57:00,62.3,-23.0,29.83,ESE,112,1.0,2.0,0,0.00,,,0.00,Rainwise IP-100,2013-05-31 01:57:00,
2013-05-30 22:02:00,61.9,-23.0,29.84,ESE,112,2.0,2.0,0,0.00,,,0.00,Rainwise IP-100,2013-05-31 02:02:00,
2013-05-30 22:07:00,61.7,-23.0,29.84,East,90,2.0,2.0,0,0.00,,,0.00,Rainwise IP-100,2013-05-31 02:07:00,
2013-05-30 22:12:00,62.0,-23.0,29.83,East,90,1.0,2.0,0,0.00,,,0.00,Rainwise IP-100,2013-05-31 02:12:00,
2013-05-30 22:17:00,62.1,-23.0,29.83,ESE,112,2.0,2.0,0,0.00,,,0.00,Rainwise IP-100,2013-05-31 02:17:00,
2013-05-30 22:22:00,61.8,-23.0,29.83,East,90,2.0,2.0,0,0.00,,,0.00,Rainwise IP-100,2013-05-31 02:22:00,
2013-05-30 22:27:00,61.9,-23.0,29.83,East,90,1.0,2.0,0,0.00,,,0.00,Rainwise IP-100,2013-05-31 02:27:00,
2013-05-30 22:32:00,61.8,-23.0,29.83,East,90,2.0,2.0,0,0.00,,,0.00,Rainwise IP-100,2013-05-31 02:32:00,
2013-05-30 22:37:00,62.1,-23.0,29.83,East,90,2.0,2.0,0,0.00,,,0.00,Rainwise IP-100,2013-05-31 02:37:00,
2013-05-30 22:42:00,62.3,-23.0,29.83,East,90,2.0,2.0,0,0.00,,,0.00,Rainwise IP-100,2013-05-31 02:42:00,
2013-05-30 22:47:00,62.2,-23.0,29.83,East,90,2.0,2.0,0,0.00,,,0.00,Rainwise IP-100,2013-05-31 02:47:00,
2013-05-30 22:52:00,62.1,-23.0,29.83,East,90,2.0,2.0,0,0.00,,,0.00,Rainwise IP-100,2013-05-31 02:52:00,
2013-05-30 22:57:00,61.8,-23.0,29.83,ESE,112,2.0,2.0,0,0.00,,,0.00,Rainwise IP-100,2013-05-31 02:57:00,
2013-05-30 23:02:00,61.4,-23.0,29.83,ESE,112,2.0,2.0,0,0.00,,,0.00,Rainwise IP-100,2013-05-31 03:02:00,
2013-05-30 23:07:00,61.2,-23.0,29.83,ESE,112,0.0,2.0,0,0.00,,,0.00,Rainwise IP-100,2013-05-31 03:07:00,
2013-05-30 23:12:00,60.9,-23.0,29.83,ESE,112,1.0,2.0,0,0.00,,,0.00,Rainwise IP-100,2013-05-31 03:12:00,
2013-05-30 23:17:00,60.6,-23.0,29.83,ESE,112,0.0,2.0,0,0.00,,,0.00,Rainwise IP-100,2013-05-31 03:17:00,
2013-05-30 23:22:00,60.5,-23.0,29.83,ESE,112,0.0,2.0,0,0.00,,,0.00,Rainwise IP-100,2013-05-31 03:22:00,
2013-05-30 23:27:00,60.5,-23.0,29.83,ESE,112,0.0,2.0,0,0.00,,,0.00,Rainwise IP-100,2013-05-31 03:27:00,
2013-05-30 23:32:00,60.4,-23.0,29.83,ESE,112,0.0,0.0,0,0.00,,,0.00,Rainwise IP-100,2013-05-31 03:32:00,
2013-05-30 23:37:00,60.4,-23.0,29.83,ESE,112,0.0,0.0,0,0.00,,,0.00,Rainwise IP-100,2013-05-31 03:37:00,
2013-05-30 23:42:00,59.9,-23.0,29.84,ESE,112,0.0,0.0,0,0.00,,,0.00,Rainwise IP-100,2013-05-31 03:42:00,
2013-05-30 23:47:00,59.7,-23.0,29.84,ESE,112,0.0,0.0,0,0.00,,,0.00,Rainwise IP-100,2013-05-31 03:47:00,
2013-05-30 23:52:00,59.6,-23.0,29.84,ESE,112,0.0,0.0,0,0.00,,,0.00,Rainwise IP-100,2013-05-31 03:52:00,
2013-05-30 23:57:00,59.5,-23.0,29.84,ESE,112,0.0,2.0,0,0.00,,,0.00,Rainwise IP-100,2013-05-31 03:57:00,